Port Macquarie Airport Observation History
Time Wind Speed Temp Pressure Rel. Hum Rain
03/03:30pm ENE 7-11 kts 25.6°c 1007.3 hPa 78% 0.0mm
03/03:00pm ENE 7-10 kts 25.7°c 1007.6 hPa 79% 0.0mm
03/02:30pm ENE 10-13 kts 25.2°c 1007.9 hPa 78% 0.0mm
03/02:00pm ENE 9-12 kts 26.5°c 1008.2 hPa 74% 0.0mm
03/01:30pm ESE 6-9 kts 27.2°c 1008.9 hPa 69% 0.0mm
03/01:00pm SE 7-9 kts 26.2°c 1009.3 hPa 73% 0.0mm
03/12:30pm WNW 3-8 kts 27.6°c 1009.8 hPa 68% 0.0mm
03/12:00pm WNW 2-5 kts 27.1°c 1010.1 hPa 64% 0.0mm
03/11:30am S 2-4 kts 26.2°c 1010.4 hPa 75% 0.0mm
03/11:00am WSW 3-6 kts 24.9°c 1010.6 hPa 77% 0.0mm
03/10:30am W 3-5 kts 23.6°c 1010.7 hPa 83% 0.0mm
03/10:00am WNW 3-6 kts 22.4°c 1011.0 hPa 90% 0.0mm
03/09:30am W 6-7 kts 20.9°c 1011.2 hPa 95% 0.0mm
03/09:00am WNW 5-6 kts 19.9°c 1011.1 hPa 98% 0.4mm
03/08:48am W 4-5 kts 19.7°c 1011.1 hPa 99% 0.4mm
03/08:30am WNW 5-7 kts 19.3°c 1011.1 hPa 99% 0.4mm
03/08:16am NW 5-6 kts 19.2°c 1011.0 hPa 99% 0.4mm
03/08:14am NW 5-7 kts 19.1°c 1011.0 hPa 98% 0.4mm
03/08:00am WNW 4-5 kts 19.4°c 1010.8 hPa 98% 0.4mm
03/07:30am CALM 0 kts 18.3°c 1010.8 hPa 99% 0.4mm
03/07:00am CALM 0 kts 17.9°c 1010.5 hPa 98% 0.4mm
03/06:30am CALM 0 kts 17.7°c 1010.5 hPa 97% 0.4mm
03/06:00am CALM 0 kts 18.1°c 1010.2 hPa 97% 0.4mm
03/05:30am CALM 0 kts 18.4°c 1009.9 hPa 97% 0.4mm
03/05:00am CALM 0 kts 18.4°c 1009.9 hPa 97% 0.4mm
03/04:30am CALM 0 kts 18.6°c 1010.0 hPa 96% 0.4mm
03/04:00am CALM 0 kts 18.9°c 1010.1 hPa 95% 0.4mm
03/03:30am CALM 0-3 kts 19.9°c 1010.2 hPa 93% 0.4mm
03/03:00am NW 2-3 kts 19.9°c 1010.5 hPa 92% 0.4mm
03/02:30am N 4-5 kts 20.5°c 1010.6 hPa 90% 0.4mm
03/02:00am N 6-7 kts 21.0°c 1010.9 hPa 90% 0.4mm
03/01:30am N 4-5 kts 21.2°c 1011.2 hPa 89% 0.4mm
03/01:00am N 5-6 kts 21.5°c 1011.2 hPa 88% 0.4mm
03/12:30am NNE 7-9 kts 21.6°c 1011.4 hPa 88% 0.4mm
03/12:00am N 6-8 kts 21.9°c 1011.8 hPa 88% 0.4mm
Time Wind Speed Temp Pressure Rel. Hum Rain
02/11:30pm N 4-7 kts 21.8°c 1012.2 hPa 89% 0.4mm
02/11:00pm N 7-8 kts 22.0°c 1012.5 hPa 88% 0.4mm
02/10:30pm N 6-8 kts 22.1°c 1012.7 hPa 90% 0.4mm
02/10:00pm N 8-11 kts 22.1°c 1012.7 hPa 91% 0.4mm
02/09:30pm N 3-5 kts 22.0°c 1012.9 hPa 90% 0.4mm
02/09:00pm NNE 6-9 kts 22.5°c 1012.9 hPa 86% 0.2mm
02/08:30pm NNE 7-10 kts 23.1°c 1012.9 hPa 81% 0.0mm
02/08:00pm N 7-10 kts 23.3°c 1012.9 hPa 78% 0.0mm
02/07:30pm N 6-9 kts 23.5°c 1012.9 hPa 76% 0.0mm
02/07:00pm N 9-14 kts 23.6°c 1012.8 hPa 77% 0.0mm
02/06:30pm NNE 12-17 kts 23.9°c 1012.4 hPa 76% 0.0mm
02/06:00pm NNE 11-14 kts 24.3°c 1012.1 hPa 76% 0.0mm
02/05:30pm NNE 13-18 kts 24.7°c 1012.0 hPa 72% 0.0mm
02/05:00pm NNE 13-19 kts 25.3°c 1012.0 hPa 70% 0.0mm
02/04:30pm NE 15-20 kts 26.1°c 1012.0 hPa 64% 0.0mm
02/04:00pm NE 12-18 kts 25.9°c 1012.2 hPa 66% 0.0mm
02/03:30pm NE 13-18 kts 26.6°c 1012.4 hPa 64% 0.0mm
02/03:00pm NNE 14-19 kts 26.9°c 1012.8 hPa 67% 0.0mm
02/02:30pm NNE 13-17 kts 26.6°c 1012.9 hPa 63% 0.0mm
02/02:00pm NNE 12-15 kts 27.0°c 1013.4 hPa 55% 0.0mm
02/01:30pm NNE 11-15 kts 27.3°c 1014.0 hPa 64% 0.0mm
02/01:00pm NNE 10-14 kts 26.6°c 1014.3 hPa 65% 0.0mm
02/12:30pm NNE 13-18 kts 26.7°c 1014.6 hPa 64% 0.0mm
02/12:00pm N 12-17 kts 25.6°c 1015.3 hPa 67% 0.0mm
02/11:30am N 12-17 kts 26.2°c 1015.6 hPa 67% 0.0mm
02/11:00am NNE 12-17 kts 24.7°c 1016.0 hPa 70% 0.0mm
02/10:30am N 10-14 kts 24.7°c 1016.3 hPa 76% 0.0mm
02/10:00am N 7-10 kts 23.0°c 1016.7 hPa 83% 0.0mm
02/09:30am NNW 3-4 kts 20.8°c 1016.9 hPa 92% 0.0mm
02/09:00am CALM 0 kts 19.0°c 1016.9 hPa 98% 0.0mm
02/08:30am NW 3-4 kts 18.4°c 1016.8 hPa 99% 0.0mm
02/08:00am CALM 0 kts 18.1°c 1016.8 hPa 99% 0.0mm
02/07:30am NW 3 kts 17.3°c 1016.7 hPa 99% 0.0mm
02/07:00am NW 1-3 kts 17.2°c 1016.5 hPa 99% 0.0mm
02/06:30am CALM 0 kts 17.1°c 1016.8 hPa 98% 0.0mm
02/06:00am NW 3-5 kts 17.7°c 1016.7 hPa 99% 0.0mm
02/05:30am CALM 0 kts 17.6°c 1016.6 hPa 99% 0.0mm
02/05:00am CALM 0 kts 17.4°c 1016.6 hPa 99% 0.0mm
02/04:30am CALM 0 kts 17.5°c 1016.5 hPa 98% 0.0mm
02/04:00am CALM 0 kts 17.9°c 1016.5 hPa 99% 0.0mm
02/03:30am CALM 0 kts 17.5°c 1016.8 hPa 99% 0.0mm
02/03:00am CALM 0 kts 17.4°c 1017.2 hPa 99% 0.0mm
02/02:30am CALM 0 kts 17.3°c 1017.4 hPa 98% 0.0mm
02/02:05am CALM 0 kts 17.0°c 1017.7 hPa 97% 0.0mm
02/02:00am CALM 0 kts 16.9°c 1017.7 hPa 97% 0.0mm
02/01:51am CALM 0 kts 16.9°c 1017.9 hPa 97% 0.0mm
02/01:30am CALM 0 kts 17.8°c 1018.1 hPa 99% 0.0mm
02/01:00am CALM 0 kts 17.3°c 1018.2 hPa 97% 0.0mm
02/12:55am CALM 0 kts 17.2°c 1018.2 hPa 97% 0.0mm
02/12:30am CALM 0 kts 17.3°c 1018.2 hPa 97% 0.0mm
02/12:19am CALM 0 kts 17.4°c 1018.2 hPa 97% 0.0mm
02/12:00am CALM 0 kts 18.4°c 1018.5 hPa 98% 0.0mm
Time Wind Speed Temp Pressure Rel. Hum Rain
01/11:30pm CALM 0 kts 17.8°c 1018.7 hPa 96% 0.0mm
01/11:00pm CALM 0 kts 17.7°c 1018.6 hPa 95% 0.0mm
01/10:30pm CALM 0 kts 18.5°c 1018.8 hPa 96% 0.0mm
01/10:00pm CALM 0 kts 19.0°c 1018.9 hPa 94% 0.0mm
01/09:30pm CALM 0 kts 19.5°c 1018.9 hPa 95% 0.0mm
01/09:00pm NNW 1-4 kts 19.4°c 1018.9 hPa 92% 0.0mm
01/08:30pm CALM 0 kts 20.2°c 1018.5 hPa 89% 0.0mm
01/08:00pm NNE 3-4 kts 21.2°c 1018.1 hPa 85% 0.0mm
01/07:30pm NNE 4-6 kts 22.5°c 1017.8 hPa 79% 0.0mm
01/07:00pm NE 5-7 kts 23.0°c 1017.7 hPa 77% 0.0mm
01/06:30pm ENE 6-8 kts 23.6°c 1017.6 hPa 74% 0.0mm
01/06:00pm ENE 6-8 kts 24.1°c 1017.6 hPa 73% 0.0mm
01/05:30pm ENE 7-10 kts 24.6°c 1017.4 hPa 72% 0.0mm
01/05:00pm ENE 7-11 kts 25.1°c 1017.3 hPa 70% 0.0mm
01/04:30pm ENE 9-11 kts 25.2°c 1017.0 hPa 70% 0.0mm
01/04:00pm ENE 9-13 kts 25.8°c 1017.0 hPa 72% 0.0mm
01/03:30pm ENE 8-11 kts 25.8°c 1017.0 hPa 72% 0.0mm
01/03:00pm ENE 9-12 kts 25.7°c 1017.0 hPa 70% 0.0mm
01/02:30pm E 9-13 kts 25.7°c 1017.1 hPa 71% 0.0mm
01/02:00pm ENE 9-12 kts 25.9°c 1017.4 hPa 70% 0.0mm
01/01:30pm E 9-11 kts 25.5°c 1017.7 hPa 75% 0.0mm
01/01:00pm SE 3-5 kts 24.4°c 1018.3 hPa 76% 0.0mm
01/12:30pm SE 5-8 kts 24.4°c 1018.7 hPa 76% 0.0mm
01/12:00pm N 1-3 kts 24.3°c 1019.1 hPa 77% 0.0mm
01/11:30am SW 1-4 kts 24.1°c 1019.5 hPa 78% 0.0mm
01/11:00am S 3-5 kts 23.9°c 1019.6 hPa 79% 0.0mm
01/10:30am SSW 5-7 kts 23.9°c 1019.6 hPa 79% 0.0mm
01/10:00am WSW 4-7 kts 23.6°c 1019.4 hPa 80% 0.0mm
01/09:30am WSW 5-6 kts 21.9°c 1019.6 hPa 82% 0.0mm
01/09:00am WNW 6-10 kts 21.2°c 1019.6 hPa 86% 0.0mm
01/08:30am W 6-9 kts 20.1°c 1019.1 hPa 90% 0.0mm
01/08:00am WSW 3-6 kts 18.4°c 1018.8 hPa 97% 0.0mm
01/07:30am WSW 2-4 kts 17.6°c 1018.6 hPa 96% 0.0mm
01/07:00am WSW 3-5 kts 17.9°c 1018.2 hPa 97% 0.0mm
01/06:30am W 5-9 kts 17.8°c 1018.0 hPa 99% 0.0mm
01/06:00am WSW 1-4 kts 16.8°c 1017.7 hPa 98% 0.0mm
01/05:30am W 3-5 kts 16.9°c 1017.5 hPa 97% 0.0mm
01/05:00am SW 2-3 kts 17.1°c 1017.4 hPa 97% 0.0mm
01/04:30am W 2-4 kts 17.4°c 1017.2 hPa 96% 0.0mm
01/04:00am W 3-5 kts 18.0°c 1017.2 hPa 96% 0.0mm
01/03:30am S 3 kts 17.5°c 1017.1 hPa 93% 0.0mm
01/03:00am WSW 4-6 kts 18.9°c 1017.2 hPa 92% 0.0mm
01/02:30am WSW 1-5 kts 18.5°c 1017.4 hPa 94% 0.0mm
01/02:00am W 2-4 kts 18.6°c 1017.5 hPa 91% 0.0mm
01/01:30am W 3-5 kts 19.4°c 1017.6 hPa 90% 0.0mm
01/01:00am WNW 5-7 kts 19.8°c 1017.6 hPa 89% 0.0mm
01/12:30am WNW 5-7 kts 19.9°c 1017.7 hPa 90% 0.0mm
01/12:00am W 4-6 kts 19.7°c 1017.8 hPa 92% 0.0mm